Location: Chacón
(10.5789°N, 66.9317°W)
Time: 03:21:28
(UTC+00:00)

Cosmos 962 Rocket - Pass Details

Date: 14 October 2025
Orbit: 950 x 998 km, 82.9° (Epoch: 17 November)

Event Time Altitude Azimuth Distance (km) Brightness Sun altitude
Rises 09:50:39 0° 337° (NNW) 3,692 7.2 -7.1°
Reaches altitude 10° 09:53:30 10° 327° (NNW) 2,738 6.5 -6.4°
Maximum altitude 09:58:46 29° 269° (W) 1,713 5.3 -5.2°
Drops below altitude 10° 10:04:00 10° 211° (SSW) 2,710 6.6 -3.9°
Sets 10:06:50 0° 200° (SSW) 3,649 7.4 -3.2°
